This demonstration page uses our WeatherBlox Daily Observations layout. Learn more.

Left ArrowRight Arrow

Hourly Observations for September 14, 2015

Temp ( °F °C ) Dew Point ( °F °C ) Humidity (%) Winds ( mph kmh ) Pressure ( in mb ) Visibility ( mi km ) Precip ( " mm )
12:53 am 00:53 Clear 78 25.6 55 12.8 45 45 Calm 29.65 1004 9 14 0.00 0.00
1:53 am 01:53 Mostly Cloudy 78 25.6 54 12.2 43 43 Calm 29.65 1004 9 14 0.00 0.00
2:53 am 02:53 Cloudy 76 24.4 54 12.2 47 47 Calm 29.63 1003 9 14 0.00 0.00
3:53 am 03:53 Cloudy 74 23.3 55 12.8 52 52 Calm 29.62 1003 9 14 0.00 0.00
4:53 am 04:53 Mostly Cloudy 73 22.8 56 13.3 55 55 NW 3 6 29.61 1003 9 14 0.00 0.00
5:53 am 05:53 Partly Cloudy 73 22.8 57 13.9 57 57 Calm 29.61 1003 9 14 0.00 0.00
6:53 am 06:53 Mostly Cloudy 73 22.8 58 14.4 59 59 Calm 29.62 1003 9 14 0.00 0.03
7:53 am 07:53 Mostly Cloudy 72 22.2 61 16.1 68 68 SW 5 7 29.64 1004 7 11 0.00 0.03
8:53 am 08:53 Mostly Cloudy 73 22.8 54 12.2 51 51 S 8 13 29.65 1004 9 14 0.00 0.00
9:53 am 09:53 Cloudy 73 22.8 53 11.7 50 50 SSW 6 9 29.65 1004 10 16 0.00 0.03
10:53 am 10:53 Partly Cloudy 74 23.3 53 11.7 48 48 SW 5 7 29.67 1005 10 16 0.00 0.00
11:53 am 11:53 Mostly Sunny 76 24.4 51 10.6 42 42 SW 7 11 29.67 1005 8 13 0.00 0.00
12:53 pm 12:53 Mostly Cloudy 76 24.4 51 10.6 42 42 VRB 6 9 29.67 1005 10 16 0.00 0.00
1:53 pm 13:53 Cloudy 74 23.3 52 11.1 46 46 S 7 11 29.68 1005 10 16 0.00 0.00
2:53 pm 14:53 Cloudy 72 22.2 55 12.8 55 55 SW 5 7 29.70 1006 10 16 0.00 0.00
3:53 pm 15:53 Mostly Cloudy 71 21.7 56 13.3 59 59 SE 7 11 29.69 1006 10 16 0.00 0.03
4:53 pm 16:53 Partly Cloudy 71 21.7 56 13.3 59 59 E 3 6 29.70 1006 10 16 0.00 0.00
5:53 pm 17:53 Cloudy 71 21.7 57 13.9 61 61 SE 5 7 29.70 1006 10 16 0.00 0.00
6:53 pm 18:53 Mostly Cloudy 69 20.6 61 16.1 76 76 NNE 3 6 29.70 1006 10 16 0.00 0.03
7:53 pm 19:53 Partly Cloudy 68 20 62 16.7 81 81 NE 5 7 29.68 1005 10 16 0.00 0.00
8:53 pm 20:53 Mostly Cloudy 67 19.4 62 16.7 84 84 NW 5 7 29.70 1006 9 14 0.00 0.00
9:53 pm 21:53 Partly Cloudy 67 19.4 61 16.1 81 81 VRB 5 7 29.71 1006 10 16 0.00 0.00
10:53 pm 22:53 Cloudy 68 20 57 13.9 68 68 S 13 20 29.72 1006 10 16 0.00 0.00
11:53 pm 23:53 Cloudy 68 20 57 13.9 68 68 SSW 9 15 29.72 1007 10 16 0.00 0.00

Powered by AerisWeather